Location: Unspecified
(0.0000°N, 0.0000°E)
Time: 03:25:54
(UTC+00:00)

CZ-3C DEB - Pass Details

Date: 23 February 2026
Orbit: 506 x 35764 km, 20.4° (Epoch: 1 August)

Event Time Altitude Azimuth Distance (km) Brightness Sun altitude
Rises 13:31:19 0° 233° (SW) 4,533 ? 68.3°
Reaches altitude 10° 13:33:19 10° 226° (SW) 4,154 ? 67.9°
Maximum altitude 20:57:05 64° 37° (NE) 30,172 ? -40.3°
Enters shadow 22:27:32 57° 36° (NE) 18,901 ? -62.0°
Exits shadow 23:20:53 18° 64° (ENE) 9,782 ? -73.8°
Drops below altitude 10° 23:25:10 10° 68° (ENE) 9,341 ? -74.7°
Sets 23:29:36 0° 72° (ENE) 9,068 ? -75.5°
